Previsão horária em Alkuzhi

Hoje, 19 Junho, Sábado

Tempo Temperatura Precipitação Vento Pressão Humidade
00:00 +15°C° 0 mm 2 m/s 761 mmHg 90%
01:00 +14°C° 0 mm 1 m/s 761 mmHg 91%
02:00 +14°C° 0 mm 1 m/s 761 mmHg 91%
03:00 +14°C° 0 mm 1 m/s 761 mmHg 92%
04:00 +15°C° 0 mm 1 m/s 761 mmHg 89%
05:00 +16°C° 0 mm 1 m/s 761 mmHg 86%
06:00 +18°C° 0 mm 1 m/s 761 mmHg 83%
07:00 +20°C° 0 mm 1 m/s 761 mmHg 77%
08:00 +22°C° 0 mm 1 m/s 761 mmHg 71%
09:00 +23°C° 0 mm 1 m/s 761 mmHg 64%
10:00 +24°C° 0 mm 1 m/s 761 mmHg 60%
11:00 +25°C° 0 mm 1 m/s 761 mmHg 56%
12:00 +26°C° 0 mm 1 m/s 761 mmHg 52%
13:00 +27°C° 0 mm 1 m/s 760 mmHg 51%
14:00 +27°C° 0 mm 1 m/s 760 mmHg 50%
15:00 +28°C° 0 mm 1 m/s 760 mmHg 50%
16:00 +27°C° 0 mm 1 m/s 760 mmHg 54%
17:00 +27°C° 0 mm 1 m/s 759 mmHg 59%
18:00 +27°C° 0 mm 1 m/s 759 mmHg 63%
19:00 +25°C° 0 mm 1 m/s 759 mmHg 69%
20:00 +23°C° 0 mm 1 m/s 759 mmHg 75%
21:00 +21°C° 0 mm 1 m/s 759 mmHg 81%
22:00 +20°C° 0 mm 1 m/s 759 mmHg 83%
23:00 +19°C° 0 mm 1 m/s 759 mmHg 85%

Amanhã, 20 Junho, Domingo

Tempo Temperatura Precipitação Vento Pressão Humidade
00:00 +19°C° 0 mm 1 m/s 759 mmHg 87%
01:00 +18°C° 0 mm 1 m/s 759 mmHg 87%
02:00 +16°C° 0 mm 0 m/s 760 mmHg 88%
03:00 +15°C° 0 mm 0 m/s 760 mmHg 89%
04:00 +16°C° 0 mm 0 m/s 760 mmHg 86%
05:00 +17°C° 0 mm 0 m/s 760 mmHg 84%
06:00 +18°C° 0 mm 0 m/s 760 mmHg 81%
07:00 +20°C° 0 mm 0 m/s 760 mmHg 75%
08:00 +24°C° 0 mm 1 m/s 759 mmHg 70%
09:00 +25°C° 0 mm 1 m/s 759 mmHg 64%
10:00 +26°C° 0 mm 1 m/s 759 mmHg 59%
11:00 +27°C° 0 mm 1 m/s 759 mmHg 55%
12:00 +28°C° 0 mm 1 m/s 759 mmHg 50%
13:00 +29°C° 0 mm 1 m/s 759 mmHg 49%
14:00 +29°C° 0 mm 2 m/s 759 mmHg 47%
15:00 +30°C° 0 mm 2 m/s 758 mmHg 46%
16:00 +29°C° 0 mm 2 m/s 758 mmHg 51%
17:00 +29°C° 0 mm 1 m/s 758 mmHg 56%
18:00 +28°C° 0 mm 1 m/s 758 mmHg 61%
19:00 +26°C° 0 mm 1 m/s 758 mmHg 66%
20:00 +24°C° 0 mm 1 m/s 758 mmHg 71%
21:00 +22°C° 0 mm 1 m/s 758 mmHg 76%
22:00 +22°C° 0 mm 1 m/s 758 mmHg 77%
23:00 +21°C° 0 mm 1 m/s 758 mmHg 78%

Depois de amanhã, 21 Junho, Segunda-feira

Tempo Temperatura Precipitação Vento Pressão Humidade
00:00 +20°C° 0 mm 1 m/s 758 mmHg 79%
01:00 +20°C° 0 mm 1 m/s 758 mmHg 80%
02:00 +20°C° 0 mm 1 m/s 758 mmHg 82%
03:00 +20°C° 0 mm 1 m/s 758 mmHg 83%
04:00 +20°C° 0 mm 1 m/s 758 mmHg 82%
05:00 +21°C° 0 mm 1 m/s 758 mmHg 82%
06:00 +22°C° 0 mm 1 m/s 758 mmHg 82%
07:00 +23°C° 0 mm 2 m/s 758 mmHg 76%
08:00 +25°C° 0 mm 2 m/s 758 mmHg 71%
09:00 +26°C° 0 mm 2 m/s 758 mmHg 65%
10:00 +27°C° 0 mm 2 m/s 758 mmHg 60%
11:00 +28°C° 0 mm 2 m/s 758 mmHg 56%
12:00 +29°C° 0 mm 2 m/s 758 mmHg 51%
13:00 +30°C° 0 mm 2 m/s 758 mmHg 50%
14:00 +30°C° 0 mm 2 m/s 757 mmHg 49%
15:00 +30°C° 0 mm 2 m/s 757 mmHg 48%
16:00 +30°C° 0 mm 2 m/s 757 mmHg 53%
17:00 +29°C° 0 mm 2 m/s 757 mmHg 59%
18:00 +29°C° 0 mm 2 m/s 757 mmHg 64%
19:00 +27°C° 0 mm 2 m/s 757 mmHg 69%
20:00 +25°C° 0 mm 2 m/s 757 mmHg 75%
21:00 +23°C° 0 mm 2 m/s 757 mmHg 81%
22:00 +21°C° 0 mm 2 m/s 757 mmHg 83%
23:00 +21°C° 0 mm 2 m/s 757 mmHg 85%

22 Junho, Terça-feira

Tempo Temperatura Precipitação Vento Pressão Humidade
00:00 +20°C° 0 mm 2 m/s 757 mmHg 86%
01:00 +20°C° 0 mm 2 m/s 757 mmHg 87%
02:00 +19°C° 0 mm 2 m/s 757 mmHg 88%
03:00 +19°C° 0 mm 2 m/s 758 mmHg 89%
04:00 +21°C° 0 mm 1 m/s 758 mmHg 86%
05:00 +22°C° 0 mm 1 m/s 758 mmHg 84%
06:00 +23°C° 0 mm 1 m/s 758 mmHg 81%
07:00 +24°C° 0 mm 1 m/s 758 mmHg 75%
08:00 +26°C° 0 mm 2 m/s 758 mmHg 69%
09:00 +28°C° 0 mm 2 m/s 758 mmHg 62%
10:00 +29°C° 0 mm 2 m/s 758 mmHg 57%
11:00 +30°C° 0 mm 2 m/s 758 mmHg 52%
12:00 +31°C° 0 mm 2 m/s 758 mmHg 47%
13:00 +32°C° 0 mm 2 m/s 758 mmHg 46%
14:00 +32°C° 0 mm 2 m/s 757 mmHg 44%
15:00 +32°C° 0 mm 2 m/s 757 mmHg 42%
16:00 +32°C° 0 mm 2 m/s 757 mmHg 48%
17:00 +31°C° 0 mm 2 m/s 757 mmHg 53%
18:00 +31°C° 0 mm 1 m/s 757 mmHg 59%
19:00 +29°C° 0 mm 1 m/s 757 mmHg 63%
20:00 +27°C° 0 mm 1 m/s 757 mmHg 67%
21:00 +25°C° 0 mm 1 m/s 757 mmHg 71%
22:00 +24°C° 0 mm 1 m/s 757 mmHg 73%
23:00 +24°C° 0 mm 1 m/s 757 mmHg 75%

23 Junho, Quarta-feira

Tempo Temperatura Precipitação Vento Pressão Humidade
00:00 +23°C° 0 mm 1 m/s 757 mmHg 77%
01:00 +23°C° 0 mm 1 m/s 757 mmHg 79%
02:00 +22°C° 0 mm 1 m/s 757 mmHg 81%
03:00 +22°C° 0 mm 1 m/s 757 mmHg 83%
04:00 +22°C° 0 mm 1 m/s 757 mmHg 82%
05:00 +23°C° 0 mm 1 m/s 757 mmHg 81%
06:00 +24°C° 0 mm 1 m/s 757 mmHg 80%
07:00 +26°C° 0 mm 1 m/s 757 mmHg 73%
08:00 +28°C° 0 mm 2 m/s 757 mmHg 66%
09:00 +29°C° 0 mm 2 m/s 757 mmHg 59%
10:00 +31°C° 0 mm 2 m/s 757 mmHg 55%
11:00 +32°C° 0 mm 2 m/s 757 mmHg 50%
12:00 +34°C° 0 mm 2 m/s 757 mmHg 45%
13:00 +34°C° 0 mm 2 m/s 757 mmHg 44%
14:00 +34°C° 0 mm 2 m/s 757 mmHg 43%
15:00 +35°C° 0 mm 2 m/s 757 mmHg 42%
16:00 +34°C° 0 mm 2 m/s 757 mmHg 48%
17:00 +32°C° 0 mm 2 m/s 756 mmHg 53%
18:00 +32°C° 0 mm 2 m/s 756 mmHg 59%
19:00 +30°C° 0 mm 2 m/s 756 mmHg 65%
20:00 +28°C° 0 mm 1 m/s 757 mmHg 70%
21:00 +26°C° 0 mm 1 m/s 757 mmHg 76%
22:00 +25°C° 0 mm 1 m/s 757 mmHg 77%
23:00 +25°C° 0 mm 1 m/s 757 mmHg 79%

24 Junho, Quinta-feira

Tempo Temperatura Precipitação Vento Pressão Humidade
00:00 +24°C° 0 mm 1 m/s 757 mmHg 80%
01:00 +24°C° 0 mm 1 m/s 757 mmHg 82%
02:00 +23°C° 0 mm 1 m/s 757 mmHg 83%
03:00 +23°C° 0 mm 1 m/s 757 mmHg 85%
04:00 +24°C° 0 mm 1 m/s 757 mmHg 83%
05:00 +25°C° 0 mm 1 m/s 757 mmHg 82%
06:00 +25°C° 0 mm 1 m/s 757 mmHg 80%
07:00 +27°C° 0 mm 1 m/s 757 mmHg 73%
08:00 +29°C° 0 mm 1 m/s 757 mmHg 67%
09:00 +30°C° 0 mm 2 m/s 757 mmHg 60%
10:00 +31°C° 0 mm 1 m/s 757 mmHg 56%
11:00 +33°C° 0 mm 1 m/s 757 mmHg 51%
12:00 +34°C° 0 mm 1 m/s 757 mmHg 46%
13:00 +34°C° 0 mm 1 m/s 756 mmHg 45%
14:00 +34°C° 0 mm 1 m/s 756 mmHg 44%
15:00 +34°C° 0 mm 1 m/s 756 mmHg 43%
16:00 +35°C° 0 mm 2 m/s 756 mmHg 48%
17:00 +34°C° 0 mm 2 m/s 755 mmHg 53%
18:00 +33°C° 0 mm 3 m/s 755 mmHg 58%
19:00 +29°C° 0.1 mm 2 m/s 755 mmHg 62%
20:00 +26°C° 0.1 mm 2 m/s 755 mmHg 66%
21:00 +24°C° 0.1 mm 1 m/s 756 mmHg 70%
22:00 +23°C° 0 mm 1 m/s 755 mmHg 70%
23:00 +23°C° 0 mm 1 m/s 755 mmHg 70%
Mostrar mais